Location: Lafig�re
(44.4503°N, 4.0357°E)
Time: 10:25:31
(UTC+00:00)

Tiros 1 - All Passes

Search period start: 24 January 2021 00:00
Search period end: 03 February 2021 00:00
Orbit: 630 x 663 km, 48.4° (Epoch: 24 January)

Date Brightness Start Highest point End Pass type
(mag) Time Alt. Az. Time Alt. Az. Time Alt. Az.
24 Jan - 00:18:49 10° W 00:22:37 26° SW 00:26:27 10° SSE night (unlit)
24 Jan - 16:14:50 10° S 16:17:58 18° SE 16:21:05 10° E daylight
24 Jan - 17:54:57 10° SW 17:59:34 71° SSE 18:04:11 10° ENE visible
24 Jan - 19:37:22 10° W 19:41:56 55° N 19:46:29 10° ENE visible
24 Jan - 21:19:58 10° WNW 21:24:32 61° NNE 21:29:07 10° E visible
24 Jan - 23:02:14 10° WNW 23:06:45 53° SSW 23:11:16 10° SE night (unlit)
25 Jan - 00:46:22 10° WSW 00:48:10 12° SW 00:49:57 10° SSW night (unlit)
25 Jan - 16:39:20 10° SSW 16:43:35 36° SE 16:47:50 10° ENE daylight
25 Jan - 18:20:56 10° WSW 18:25:35 74° NNW 18:30:13 10° ENE visible
25 Jan - 20:03:37 10° WNW 20:08:09 51° N 20:12:40 10° E visible
25 Jan - 21:46:00 10° WNW 21:50:38 86° NNE 21:55:17 10° ESE night (unlit)
25 Jan - 23:28:35 10° W 23:32:30 28° SW 23:36:25 10° SSE night (unlit)
26 Jan - 15:24:54 10° S 15:27:50 17° SE 15:30:46 10° E daylight
26 Jan - 17:04:47 10° SW 17:09:25 67° SSE 17:14:01 10° ENE daylight
26 Jan - 18:47:10 10° W 18:51:44 56° N 18:56:18 10° ENE visible
26 Jan - 20:29:46 10° WNW 20:34:21 59° NNE 20:38:56 10° E visible
26 Jan - 22:12:03 10° WNW 22:16:36 57° SSW 22:21:08 10° SE night (unlit)
26 Jan - 23:55:52 10° WSW 23:58:03 13° SW 00:00:14 10° SSW night (unlit)
27 Jan - 15:49:16 10° SSW 15:53:27 33° SE 15:57:38 10° ENE daylight
27 Jan - 17:30:45 10° WSW 17:35:25 77° NNW 17:40:04 10° ENE visible
27 Jan - 19:13:25 10° WNW 19:17:58 51° N 19:22:28 10° ENE visible
27 Jan - 20:55:49 10° WNW 21:00:28 82° NNE 21:05:07 10° ESE visible
27 Jan - 22:38:21 10° W 22:42:22 30° SW 22:46:22 10° SSE night (unlit)
28 Jan - 14:35:00 10° S 14:37:43 15° SE 14:40:26 10° E daylight
28 Jan - 16:14:38 10° SW 16:19:15 63° SSE 16:23:51 10° ENE daylight
28 Jan - 17:56:57 10° W 18:01:33 57° N 18:06:07 10° ENE visible
28 Jan - 19:39:35 10° WNW 19:44:10 58° N 19:48:44 10° E visible
28 Jan - 21:21:52 10° WNW 21:26:27 61° SSW 21:30:59 10° SE visible
28 Jan - 23:05:27 10° W 23:07:56 14° SW 23:10:26 10° SSW night (unlit)
29 Jan - 14:59:11 10° SSW 15:03:19 31° SE 15:07:25 10° E daylight
29 Jan - 16:40:33 10° WSW 16:45:14 80° NNW 16:49:54 10° ENE daylight
29 Jan - 18:23:13 10° WNW 18:27:46 51° N 18:32:18 10° ENE visible
29 Jan - 20:05:39 10° WNW 20:10:18 79° NNE 20:14:56 10° ESE visible
29 Jan - 21:48:07 10° W 21:52:14 32° SW 21:56:19 10° SSE night (unlit)
30 Jan - 13:45:08 10° SSE 13:47:36 14° SE 13:50:03 10° ESE daylight
30 Jan - 15:24:29 10° SW 15:29:06 59° SSE 15:33:41 10° ENE daylight
30 Jan - 17:06:45 10° W 17:11:21 58° NNW 17:15:57 10° ENE daylight
30 Jan - 18:49:24 10° WNW 18:53:59 56° N 18:58:32 10° E visible
30 Jan - 20:31:42 10° WNW 20:36:17 65° SSW 20:40:52 10° SE visible
30 Jan - 22:15:04 10° W 22:17:50 16° SW 22:20:34 10° S night (unlit)
31 Jan - 14:09:08 10° SSW 14:13:10 29° SE 14:17:12 10° E daylight
31 Jan - 15:50:22 10° WSW 15:55:03 84° NNW 15:59:44 10° ENE daylight
31 Jan - 17:33:01 10° WNW 17:37:34 51° N 17:42:06 10° ENE visible
31 Jan - 19:15:28 10° WNW 19:20:08 75° NNE 19:24:45 10° ESE visible
31 Jan - 20:57:55 10° WNW 21:02:06 34° SW 21:06:16 10° SSE visible
01 Feb - 12:55:20 10° SSE 12:57:29 13° SE 12:59:38 10° ESE daylight
01 Feb - 14:34:21 10° SW 14:38:56 55° SSE 14:43:30 10° ENE daylight
01 Feb - 16:16:32 10° W 16:21:10 60° NNW 16:25:46 10° ENE daylight
01 Feb - 17:59:12 10° WNW 18:03:47 55° N 18:08:21 10° E visible
01 Feb - 19:41:31 10° WNW 19:46:08 69° SSW 19:50:43 10° SE visible
01 Feb - 21:24:44 10° W 21:27:43 17° SW 21:30:41 10° S visible
02 Feb - 13:19:04 10° SSW 13:23:02 27° SE 13:26:58 10° E daylight
02 Feb - 15:00:10 10° WSW 15:04:53 87° NNW 15:09:34 10° ENE daylight
02 Feb - 16:42:48 10° W 16:47:22 52° N 16:51:55 10° ENE daylight
02 Feb - 18:25:17 10° WNW 18:29:56 73° NNE 18:34:34 10° ESE visible
02 Feb - 20:07:42 10° WNW 20:11:57 37° SW 20:16:12 10° SSE visible
